Content
SEND FEEDBACK

Daily
Averages
Monthly
Summary
United States of America

INDEPENDENCE, IOWA


Home > North America > United States > Iowa
Elevation: 920 feet     Latitude: 42 28N     Longitude: 091 54W

WEATHER
 
SELECT A DAY
Number of Records: 209,181;   Date Range: 8/16/02 - 10/20/14
 
SHARE

PRINT THIS DATA

[ ← Previous Day ]
WEATHER ALMANAC - JANUARY 30, 2013
[ Next Day → ]
[ °C ]   °F
Weather ElementAverageHighLow
Temperature22.8 °F32 °F (12:55 am)14 °F (8:15 pm)
Dewpoint19 °F30.2 °F (12:55 am)8.6 °F (8:35 pm)
Humidity85.6 %93 % (12:55 am)73 % (7:35 pm)
Barometer29.56 in29.75 in (11:55 pm)29.40 in (4:55 am)
Wind Speed20.7 mph31.1 mph (9:15 am)
Wind Gust36.8 mph (10:35 am)
Weather ElementAverage
Visibility5.9 mi
Wind DirectionWNW (294 °)

Weather ElementTotal
Precipitation0.01 in
Heating Degree Days42 (Base 65)
Averaged from 67 records on January 30, 2013
WEATHER CONDITIONS BREAKOUT
WIND DIRECTION BREAKOUT
WEATHER BY HOUR - JANUARY 30, 2013
[ °C ]   °F
Local TimeTemperatureDewpointHumidityBarometerVisibilityWind DirectionWind SpeedGust SpeedPrecipitationEventsConditions
12:55 AM32.0 °F30.2 °F93 %29.51 in10.0 miNorth (10°)15.0 mph21.9 mphOvercast
1:15 AM32.0 °F30.2 °F93 %29.50 in10.0 miNorth (10°)12.7 mph19.6 mphOvercast
1:35 AM32.0 °F30.2 °F93 %29.48 in10.0 miNorth (10°)16.1 mphOvercast
1:55 AM32.0 °F30.2 °F93 %29.49 in10.0 miNorth (10°)10.4 mphOvercast
2:15 AM32.0 °F30.2 °F93 %29.50 in7.0 miNorth (360°)9.2 mphOvercast
2:55 AM32.0 °F30.2 °F93 %29.49 in1.2 miNorth (360°)12.7 mph0.01 inSnowLight Snow
3:15 AM32.0 °F30.2 °F93 %29.47 in1.5 miNorth (10°)15.0 mphSnowLight Snow
3:35 AM32.0 °F30.2 °F93 %29.45 in1.5 miNorth (360°)13.8 mph17.3 mphSnowLight Snow
3:55 AM32.0 °F30.2 °F93 %29.44 in2.0 miNorth (10°)11.5 mph19.6 mphSnowLight Snow
4:15 AM32.0 °F30.2 °F93 %29.42 in1.0 miNorth (360°)13.8 mphSnowLight Snow
4:35 AM30.2 °F28.4 °F93 %29.42 in1.2 miNorth (360°)21.9 mphSnowLight Snow
4:55 AM30.2 °F28.4 °F93 %29.40 in1.0 miNorth (360°)24.2 mphSnowLight Snow
5:15 AM30.2 °F28.4 °F93 %29.42 in1.0 miNorth (360°)23.0 mph32.2 mphSnowLight Snow
6:15 AM28.4 °F26.6 °F93 %29.43 inNNW (340°)21.9 mphOvercast
6:35 AM28.4 °F26.6 °F93 %29.44 inNorth (350°)21.9 mph33.4 mph
6:55 AM28.4 °F26.6 °F93 %29.46 inNNW (340°)21.9 mphOvercast
7:15 AM28.4 °F26.6 °F93 %29.48 inNNW (340°)25.3 mphOvercast
7:35 AM26.6 °F24.8 °F93 %29.48 inNNW (340°)24.2 mph33.4 mphOvercast
7:55 AM26.6 °F24.8 °F93 %29.48 inNNW (340°)25.3 mphOvercast
8:15 AM26.6 °F23.0 °F86 %29.48 inNNW (340°)26.5 mphOvercast
8:35 AM26.6 °F23.0 °F86 %29.48 inNNW (340°)25.3 mph32.2 mphOvercast
8:55 AM26.6 °F23.0 °F86 %29.47 inNNW (340°)26.5 mphOvercast
9:15 AM24.8 °F21.2 °F86 %29.46 inNorth (350°)31.1 mphOvercast
9:35 AM24.8 °F21.2 °F86 %29.46 inNorth (350°)27.6 mph35.7 mphOvercast
9:55 AM24.8 °F21.2 °F86 %29.46 inNNW (340°)25.3 mph32.2 mphOvercast
10:15 AM24.8 °F21.2 °F86 %29.47 inNNW (340°)28.8 mph32.2 mph
10:35 AM24.8 °F21.2 °F86 %29.48 inNNW (340°)26.5 mph36.8 mph
10:55 AM24.8 °F21.2 °F86 %29.48 inNNW (330°)26.5 mph33.4 mphOvercast
11:15 AM24.8 °F21.2 °F86 %29.49 inNNW (330°)27.6 mph33.4 mphOvercast
11:35 AM26.6 °F21.2 °F80 %29.50 inNNW (330°)29.9 mph34.5 mphOvercast
11:55 AM26.6 °F21.2 °F80 %29.50 inNNW (330°)28.8 mph36.8 mphOvercast
12:15 PM24.8 °F21.2 °F86 %29.51 inNW (310°)20.7 mph31.1 mphOvercast
12:35 PM23.0 °F19.4 °F86 %29.50 inNW (320°)28.8 mph36.8 mphOvercast
12:55 PM23.0 °F17.6 °F80 %29.51 inNW (320°)24.2 mph34.5 mphOvercast
1:15 PM23.0 °F17.6 °F80 %29.52 inNW (320°)26.5 mph33.4 mphOvercast
1:35 PM23.0 °F17.6 °F80 %29.52 inNW (320°)23.0 mph31.1 mphOvercast
1:55 PM21.2 °F17.6 °F86 %29.53 inNW (310°)23.0 mph31.1 mphOvercast
2:15 PM21.2 °F17.6 °F86 %29.53 inNW (310°)23.0 mph29.9 mphOvercast
2:35 PM21.2 °F15.8 °F80 %29.54 inNW (310°)23.0 mph32.2 mphOvercast
2:55 PM21.2 °F15.8 °F80 %29.54 inNW (310°)21.9 mph27.6 mphOvercast
3:15 PM21.2 °F14.0 °F74 %29.56 inNW (310°)18.4 mph29.9 mphMostly Cloudy
3:35 PM19.4 °F14.0 °F80 %29.57 inNW (310°)19.6 mph28.8 mphMostly Cloudy
3:55 PM19.4 °F14.0 °F80 %29.58 in4.0 miNW (310°)18.4 mph26.5 mphHaze
4:15 PM19.4 °F14.0 °F80 %29.59 in7.0 miNW (310°)16.1 mph21.9 mphOvercast
4:35 PM17.6 °F14.0 °F86 %29.60 in4.0 miNW (310°)20.7 mph26.5 mphOvercast
4:55 PM17.6 °F14.0 °F86 %29.60 in3.0 miNW (310°)18.4 mphOvercast
5:15 PM17.6 °F12.2 °F79 %29.61 in4.0 miNW (310°)18.4 mph24.2 mphHaze
5:35 PM17.6 °F12.2 °F79 %29.63 in5.0 miNW (310°)18.4 mph25.3 mphHaze
5:55 PM17.6 °F12.2 °F79 %29.64 in7.0 miNW (310°)18.4 mph24.2 mphOvercast
6:15 PM17.6 °F12.2 °F79 %29.65 in7.0 miNW (310°)20.7 mph27.6 mphOvercast
6:35 PM17.6 °F12.2 °F79 %29.65 in7.0 miNW (310°)23.0 mph29.9 mphOvercast
6:55 PM15.8 °F12.2 °F86 %29.66 in5.0 miNW (310°)19.6 mph27.6 mphOvercast
7:15 PM17.6 °F12.2 °F79 %29.67 in5.0 miNW (310°)18.4 mph25.3 mphSnowLight Snow
7:35 PM17.6 °F10.4 °F73 %29.68 in7.0 miNW (310°)13.8 mph21.9 mphOvercast
7:55 PM17.6 °F12.2 °F79 %29.68 in4.0 miNW (310°)19.6 mph24.2 mphSnowLight Snow
8:15 PM14.0 °F10.4 °F86 %29.69 in7.0 miWNW (300°)21.9 mph28.8 mphOvercast
8:35 PM14.0 °F8.6 °F79 %29.70 in10.0 miWNW (300°)19.6 mphScattered Clouds
8:55 PM14.0 °F8.6 °F79 %29.70 in10.0 miWNW (300°)18.4 mphMostly Cloudy
9:15 PM14.0 °F10.4 °F86 %29.71 in10.0 miWNW (300°)16.1 mphOvercast
9:35 PM14.0 °F10.4 °F86 %29.72 in10.0 miWNW (290°)13.8 mphOvercast
9:55 PM14.0 °F10.4 °F86 %29.72 in4.0 miWNW (290°)16.1 mphSnowLight Snow
10:15 PM14.0 °F10.4 °F86 %29.72 in4.0 miWNW (290°)17.3 mphSnowLight Snow
10:35 PM14.0 °F10.4 °F86 %29.72 in7.0 miWNW (290°)18.4 mph25.3 mphOvercast
10:55 PM14.0 °F10.4 °F86 %29.73 in4.0 miWNW (290°)19.6 mphSnowLight Snow
11:15 PM14.0 °F8.6 °F79 %29.74 in10.0 miWNW (300°)20.7 mph26.5 mphOvercast
11:35 PM14.0 °F10.4 °F86 %29.74 in10.0 miWNW (290°)18.4 mph26.5 mphOvercast
11:55 PM14.0 °F8.6 °F79 %29.75 in10.0 miWNW (290°)20.7 mphOvercast
Hourly data recorded from KIIB, located miles away from Independence, Iowa







STORIES FROM OUR PARTNERS